Regional Weather Roundup
Issued by NWS

Home | Current Version | Previous Version | Text Only | Print | Product List | Glossary Off
Versions: 1 2 3 4 5 6 7 8 9 10 11 12 13 14 15 16 17 18 19 20 21 22 23 24 25 26 27 28 29 30 31 32 33 34 35 36 37 38 39 40 41 42 43 44 45 46 47 48 49 50

000
ASUS45 KBOU 290107
RWRCO

WEATHER ROUNDUP FOR COLORADO
NATIONAL WEATHER SERVICE DENVER/BOULDER CO
600 PM MST WED JAN 28 2015

NOTE: "FAIR" INDICATES FEW OR NO CLOUDS BELOW 12000 FEET WITH NO
SIGNIFICANT WEATHER AND/OR OBSTRUCTIONS TO VISIBILITY.

COZ001>005-013-030-031-290200-
...NORTHWEST COLORADO...

CITY           SKY/WX    TMP DP  RH WIND       PRES   REMARKS
CRAIG          CLOUDY    36  31  82 CALM      30.28R
HAYDEN         CLOUDY    37  28  70 N3        30.29R
MEEKER         PTCLDY    38  28  67 CALM      30.28R
MOUNT WERNER   NOT AVBL
STEAMBOAT SPGS CLOUDY    37  29  74 CALM      30.28R
WALDEN         CLOUDY    34  27  75 SW5       30.28R WCI  30
$$

COZ006>008-011-290200-
...WEST CENTRAL VALLEYS...

CITY           SKY/WX    TMP DP  RH WIND       PRES   REMARKS
GRAND JUNCTION CLOUDY    45  33  63 N6        30.24R
MONTROSE       PTCLDY    43  29  57 W7        30.26R
EAGLE          MOCLDY    45  25  45 S7        30.27R
RIFLE          CLOUDY    47  29  49 CALM      30.25R
DELTA          MOCLDY    48  30  49 CALM      30.23R
NUCLA          CLEAR     46  28  49 NW5       30.28R
$$

COZ017>023-064>068-290200-
...SOUTHWEST COLORADO...

CITY           SKY/WX    TMP DP  RH WIND       PRES   REMARKS
DURANGO        PTCLDY    43  29  57 SW7       30.23R
CORTEZ         CLEAR     41  26  55 VRB3      30.24R
PAGOSA SPRINGS PTCLDY    37  27  67 CALM      30.26R
TELLURIDE      PTCLDY    35  25  67 W5        30.31R WCI  31
WOLF CREEK PAS NOT AVBL
$$

COZ009-010-012-014-032>034-037-058>063-290200-
...CENTRAL COLORADO...

CITY           SKY/WX    TMP DP  RH WIND       PRES   REMARKS
ASPEN          MOCLDY    38  26  62 CALM      30.27R
BUENA VISTA    PTCLDY    39  17  40 W10G17    30.24R
COPPER MTN     PTCLDY    25  18  74 W15G23    30.33R WCI  12
BERTHOUD PASS  HAZE      18  10  73 NW22G31   30.31R VSB<1/4 WCI   0
COTTONWOOD PAS PTCLDY    36  16  44 NW6G21    30.29R
GUNNISON       CLEAR     30  18  59 N3        30.30R
KREMMLING      CLOUDY    36  28  75 CALM      30.30R
LEADVILLE      PTCLDY    27  12  53 NW6       30.29R WCI  20
MONARCH PASS   CLEAR     21  18  86 MISG      30.43R
SALIDA         PTCLDY    43  19  39 W9        30.31R
SUNLIGHT       CLOUDY    30  23  74 CALM      30.35S
WILKERSON PASS PTCLDY    27  12  54 NW12G22   30.32R WCI  16
$$

COZ069>075-290200-
...SAN LUIS VALLEY/SANGRE DE CRISTO MOUNTAINS...

CITY           SKY/WX    TMP DP  RH WIND       PRES   REMARKS
ALAMOSA        MOCLDY    38  22  52 NE10      30.23R
LA VETA PASS   NOT AVBL
SAGUACHE       CLEAR     32  23  69 N10       30.26R WCI  24
$$

COZ035-036-038>040-290200-
...NORTHERN COLORADO FRONT RANGE...

CITY           SKY/WX    TMP DP  RH WIND       PRES   REMARKS
DENVER INTL AP PTCLDY    47  24  40 N14       30.15R
DMNS CITY PARK   N/A     52  18  26 E3        30.15R
AURORA         PTCLDY    44  24  44 NE6       30.17R
FRONT RANGE AP NOT AVBL
ERIE MUNI ARPT CLEAR     48  18  30 CALM      30.14R
BOULDER MUN AP CLEAR     50  19  29 SW3       30.14R
CENTENNIAL     PTCLDY    48  23  37 NE7       30.17R
BROOMFIELD     PTCLDY    46  19  34 W10       30.15R
FORT COLLINS   CLEAR     48  25  40 N18       30.16R
LONGMONT       CLEAR     54  20  26 W16G23    30.15R
$$

COZ041-046-047-076>085-087-088-290200-
...PIKES PEAK/PALMER DIVIDE AND SOUTHERN FOOTHILLS...

CITY           SKY/WX    TMP DP  RH WIND       PRES   REMARKS
COLO. SPRINGS  PTCLDY    42  21  43 N9        30.18R
A. F. ACADEMY  CLEAR     40  17  39 VRB7      30.18R
ELLICOTT       CLEAR    N/A N/A N/A NE14      30.16R
FALCON         CLEAR     42  19  38 N13       30.20R
FORT CARSON    PTCLDY    45  20  38 NE12      30.14R
LIMON          CLEAR     41  31  67 N12       30.16R
MONUMENT HILL  CLEAR     37  21  52 NE6       30.20R
TRINIDAD       CLOUDY    51  28  41 NW9       30.14R
$$

COZ042>045-048>051-090-091-290200-
...NORTHEAST COLORADO...

CITY           SKY/WX    TMP DP  RH WIND       PRES   REMARKS
GREELEY ARPT   MOCLDY    50  27  40 N18G24    30.13R
AKRON          CLEAR     41  34  76 N16       30.15R
BURLINGTON     CLEAR     48  34  58 MISG      30.11R
WRAY           MOCLDY    48  35  61 NW17      30.10R
STERLING       CLEAR     45  37  76 N10       30.15R
HOLYOKE        MOCLDY    48  36  61 NW25      30.09R
FORT MORGAN    CLEAR     41  34  75 N15       30.17R
$$

COZ086-089-092>099-290200-
...SOUTHEAST COLORADO...

CITY           SKY/WX    TMP DP  RH WIND       PRES   REMARKS
PUEBLO         MOCLDY    53  19  26 N13       30.11R
LA JUNTA       MOCLDY    54  24  31 MISG      30.09R
LAMAR          MOCLDY    54  24  31 NE5       30.07R
SPRINGFIELD      N/A     48  25  40 N9        30.09R
$$


USA.gov is the U.S. government's official web portal to all federal, state and local government web resources and services.